User: anonymous   Login
Location: Unspecified
(0.0000°N, 0.0000°E)
Time: 12:15:24
(UTC+02:00)
Language:

Timation 2 Rocket - Orbit

View from above orbital plane
View from above orbital plane
View from above satellite
View from above satellite

Ground track
Ground track

The orbit data is extracted from the following two-line orbital elements,

1 04159U 69082AB  16272.13489778  .00000000  00000-0  52338-4 0  9994
2 04159  69.9641 335.9686 0113253  55.0085 306.1577 13.72355682352139
Epoch (UTC): 28 September 2016 03:14:15
Eccentricity: 0.0113253
inclination: 69.9641°
perigee height: 907 km
apogee height: 1074 km
right ascension of ascending node: 335.9686°
argument of perigee: 55.0085°
revolutions per day: 13.72355682
mean anomaly at epoch: 306.1577°
orbit number at epoch: 35213

The dashed part of the orbit path shows where the satellite is in the earth's shadow,  

DLR